Simultaneous Nadir Overpasses (SNOs) Predictions

Prediction of SNOs between LANDSAT-8 and TERRA Satellite Orbit:

Table of predicted SNOs for the next 14.0 days since TLE Epoch: 2/17/2024
Index Date (LANDSAT-8) Time (LANDSAT-8) Lat,Lon (LANDSAT-8) SZA (LANDSAT-8 ) Date (TERRA) Time (TERRA) Lat,Lon (TERRA) SZA (TERRA ) Distance(km) Time Diff (sec)
1 02/25/2024 08:44:17 -81.75, -59.43 83.91 02/25/2024 08:45:29 -81.75, -59.51 83.88 1.38 72
2 02/25/2024 09:33:44 81.76, 108.00 96.05 02/25/2024 09:34:50 81.76, 108.05 96.10 0.72 66
3 02/25/2024 10:23:10 -81.75, -84.14 83.94 02/25/2024 10:24:12 -81.76, -84.21 83.91 1.17 62
4 02/25/2024 11:12:37 81.76, 83.29 96.03 02/25/2024 11:13:33 81.76, 83.35 96.07 0.93 56
5 02/25/2024 12:02:03 -81.75,-108.86 83.96 02/25/2024 12:02:55 -81.76,-108.92 83.94 0.98 52
6 02/25/2024 12:51:29 81.75, 58.99 96.06 02/25/2024 12:52:15 81.75, 59.06 96.09 1.13 46
7 02/25/2024 13:40:56 -81.75,-133.57 83.99 02/25/2024 13:41:38 -81.76,-133.62 83.97 0.81 42
8 02/25/2024 14:30:22 81.75, 34.28 96.03 02/25/2024 14:30:58 81.75, 34.36 96.06 1.30 36
9 02/25/2024 15:19:48 -81.74,-157.87 83.96 02/25/2024 15:20:20 -81.74,-157.91 83.95 0.62 32
10 02/25/2024 16:09:15 81.75, 9.56 96.01 02/25/2024 16:09:41 81.75, 9.65 96.03 1.49 26
11 02/25/2024 16:58:41 -81.74, 177.42 83.98 02/25/2024 16:59:03 -81.74, 177.39 83.97 0.39 22
12 02/25/2024 17:48:08 81.75, -15.16 95.98 02/25/2024 17:48:24 81.75, -15.05 96.01 1.69 16
13 02/25/2024 18:37:34 -81.74, 152.70 84.01 02/25/2024 18:37:46 -81.75, 152.69 84.00 0.19 12
14 02/25/2024 19:27:00 81.74, -39.45 96.01 02/25/2024 19:27:06 81.73, -39.34 96.03 1.90 6
15 02/25/2024 20:16:27 -81.74, 127.98 84.03 02/25/2024 20:16:29 -81.75, 127.99 84.03 0.19 2
16 02/25/2024 21:05:53 81.74, -64.17 95.99 02/25/2024 21:05:49 81.74, -64.04 96.00 2.08 4
17 02/25/2024 21:55:19 -81.73, 103.68 84.00 02/25/2024 21:55:11 -81.73, 103.70 84.01 0.31 8
18 02/25/2024 22:44:46 81.74, -88.89 95.96 02/25/2024 22:44:32 81.74, -88.75 95.97 2.28 14
19 02/25/2024 23:34:12 -81.73, 78.97 84.03 02/25/2024 23:33:54 -81.73, 78.99 84.04 0.43 18
20 02/26/2024 00:23:39 81.74,-113.61 95.94 02/26/2024 00:23:15 81.74,-113.45 95.95 2.48 24
21 02/26/2024 01:13:05 -81.73, 54.25 84.05 02/26/2024 01:12:37 -81.73, 54.29 84.06 0.63 28
22 02/26/2024 02:02:31 81.73,-137.90 95.97 02/26/2024 02:01:57 81.72,-137.74 95.97 2.69 34
23 02/26/2024 02:51:58 -81.73, 29.53 84.08 02/26/2024 02:51:20 -81.74, 29.59 84.09 0.86 38
24 02/26/2024 03:41:24 81.73,-162.62 95.94 02/26/2024 03:40:40 81.72,-162.45 95.94 2.88 44
25 02/26/2024 04:30:50 -81.72, 5.23 84.05 02/26/2024 04:30:02 -81.72, 5.29 84.07 1.05 48
26 02/26/2024 05:20:17 81.73, 172.66 95.92 02/26/2024 05:19:23 81.73, 172.85 95.91 3.08 54
27 02/26/2024 06:09:43 -81.72, -19.49 84.07 02/26/2024 06:08:45 -81.72, -19.41 84.10 1.24 58
28 02/26/2024 06:59:10 81.73, 147.94 95.89 02/26/2024 06:58:06 81.73, 148.14 95.88 3.29 64
29 02/26/2024 07:48:36 -81.72, -44.21 84.10 02/26/2024 07:47:28 -81.72, -44.11 84.13 1.46 68



Historial Predications of SNOs between LANDSAT-8 and TERRA
